Philip, SD

11:07 AM MST on November 20, 2017 (GMT -0700)
Philip

Weather History for KPHP - February, 2014

Change the Weather History Date:

Monday, February 24, 2014

  Actual Average Record
Temperature  
Mean Temperature 6 °F 28 °F  
Max Temperature 20 °F 41 °F 66 °F (2009)
Min Temperature -9 °F 15 °F -17 °F (1993)
Degree Days  
Heating Degree Days 59 37  
Month to date heating degree days 1116 955  
Since 1 July heating degree days 5384 5220  
Cooling Degree Days 0 0  
Month to date cooling degree days 0 0  
Year to date cooling degree days 0 0  
Moisture  
Dew Point 7 °F    
Average Humidity 79    
Maximum Humidity 88    
Minimum Humidity 69    
Precipitation  
Precipitation 0.13 in 0.03 in 0.30 in (1987)
Month to date precipitation 0.34 0.36  
Year to date precipitation 0.45 0.66  
Sea Level Pressure  
Sea Level Pressure 30.24 in    
Wind  
Wind Speed 14 mph (ENE)    
Max Wind Speed 26 mph    
Max Gust Speed 31 mph    
Visibility 4 miles    
Events Fog , Snow    
T = Trace of Precipitation, MM = Missing Value Source: NWS Daily Summary

Daily Weather History Graph

Daily Weather History Graph

Search for Another Location

Airport or City:

Trip Planner

Search our weather history database for the weather conditions in past years. The results will help you decide how hot, cold, wet, or windy it might be!

Date:

Astronomy

Feb. 24, 2014 Rise Set
Actual Time 6:31 AM MST 5:28 PM MST
Civil Twilight 6:02 AM MST 5:57 PM MST
Nautical Twilight 5:28 AM MST 6:30 PM MST
Astronomical Twilight 4:55 AM MST 7:04 PM MST
Moon 2:38 AM MST (2/24) 12:24 PM MST (2/24)
Length of Visible Light 11h 55m
Length of Day
10h 56m
Waning Crescent, 27% of the Moon is Illuminated
Feb 24
Waning Crescent
Mar 1
New
Mar 8
First Quarter
Mar 16
Full
Mar 23
Last Quarter

Hourly Weather History & Observations

Time (MST) Temp. Windchill Dew Point Humidity Pressure Visibility Wind Dir Wind Speed Gust Speed Precip Events Conditions
12:55 AM 19.9 °F 10.1 °F 12.0 °F 71% 30.31 in 10.0 mi East 8.1 mph - N/A   Overcast
1:48 AM 19.4 °F 7.2 °F 12.2 °F 74% 30.19 in 2.5 mi East 11.5 mph - 0.00 in Snow Light Snow
1:55 AM 19.0 °F 6.8 °F 12.0 °F 74% 30.28 in 2.0 mi East 11.5 mph - 0.00 in Snow Light Snow
2:08 AM 17.6 °F 6.4 °F 12.2 °F 79% 30.19 in 3.0 mi ESE 9.2 mph - 0.00 in Snow Light Snow
2:48 AM 17.6 °F 5.0 °F 12.2 °F 79% 30.17 in 2.5 mi East 11.5 mph - 0.01 in Snow Light Snow
2:55 AM 18.0 °F 5.4 °F 12.9 °F 81% 30.25 in 3.0 mi East 11.5 mph - 0.01 in Snow Light Snow
3:55 AM 18.0 °F 3.6 °F 12.0 °F 78% 30.23 in 5.0 mi ESE 15.0 mph - 0.00 in Snow Light Snow
4:55 AM 18.0 °F 4.2 °F 12.0 °F 78% 30.21 in 4.0 mi ESE 13.8 mph - 0.00 in Snow Light Snow
5:05 AM 17.6 °F 5.0 °F 12.2 °F 79% 30.12 in 2.5 mi ESE 11.5 mph - 0.00 in Snow Light Snow
5:20 AM 17.6 °F 2.7 °F 12.2 °F 79% 30.11 in 3.0 mi ESE 16.1 mph - 0.00 in Snow Light Snow
5:27 AM 17.6 °F 2.7 °F 12.2 °F 79% 30.11 in 1.8 mi ESE 16.1 mph - 0.00 in Snow Light Snow
5:55 AM 17.1 °F 3.0 °F 12.9 °F 84% 30.20 in 1.2 mi East 13.8 mph - 0.01 in Snow Light Snow
6:12 AM 17.6 °F 5.0 °F 12.2 °F 79% 30.11 in 1.0 mi East 11.5 mph - 0.01 in Snow Light Snow
6:55 AM 16.0 °F 2.9 °F 12.0 °F 84% 30.18 in 1.0 mi East 11.5 mph - 0.03 in Snow Light Snow
7:02 AM 15.8 °F 2.7 °F 12.2 °F 86% 30.09 in 1.2 mi East 11.5 mph - 0.00 in Snow Light Snow
7:10 AM 15.8 °F 0.9 °F 12.2 °F 86% 30.08 in 2.0 mi East 15.0 mph - 0.00 in Snow Light Snow
7:46 AM 15.8 °F 1.4 °F 10.4 °F 79% 30.09 in 1.5 mi East 13.8 mph - 0.00 in Snow Light Snow
7:55 AM 16.0 °F 1.7 °F 10.9 °F 81% 30.19 in 1.2 mi East 13.8 mph - 0.00 in Snow Light Snow
8:11 AM 15.8 °F 0.9 °F 10.4 °F 79% 30.11 in 0.8 mi East 15.0 mph - 0.01 in Snow Light Snow
8:19 AM 15.8 °F 1.4 °F 10.4 °F 79% 30.11 in 1.5 mi East 13.8 mph - 0.01 in Snow Light Snow
8:28 AM 15.8 °F 0.9 °F 10.4 °F 79% 30.12 in 2.0 mi East 15.0 mph - 0.01 in Snow Light Snow
8:39 AM 15.8 °F 2.1 °F 10.4 °F 79% 30.12 in 1.8 mi East 12.7 mph - 0.01 in Snow Light Snow
8:55 AM 15.1 °F -0.1 °F 10.9 °F 84% 30.21 in 0.8 mi East 15.0 mph - 0.02 in Snow Light Snow
9:05 AM 15.8 °F 0.9 °F 10.4 °F 79% 30.12 in 1.0 mi East 15.0 mph - 0.00 in Snow Light Snow
9:13 AM 15.8 °F 0.9 °F 10.4 °F 79% 30.11 in 0.8 mi East 15.0 mph - 0.00 in Snow Light Snow
9:39 AM 15.8 °F 2.1 °F 10.4 °F 79% 30.11 in 0.5 mi East 12.7 mph - 0.02 in Fog , Snow Snow
9:53 AM 15.8 °F 1.4 °F 10.4 °F 79% 30.12 in 0.5 mi East 13.8 mph - 0.03 in Fog , Snow Snow
9:55 AM 15.1 °F -0.6 °F 10.9 °F 84% 30.22 in 0.5 mi East 16.1 mph - 0.03 in Fog , Snow Snow
10:27 AM 15.8 °F -0.6 °F 10.4 °F 79% 30.12 in 0.2 mi East 18.4 mph - 0.01 in Fog , Snow Heavy Snow
10:37 AM 15.8 °F -0.2 °F 10.4 °F 79% 30.11 in 0.5 mi East 17.3 mph - 0.01 in Fog , Snow Snow
10:55 AM 16.0 °F -0.4 °F 10.9 °F 81% 30.23 in 0.8 mi East 18.4 mph - 0.02 in Snow Light Snow
11:00 AM 15.8 °F -0.6 °F 10.4 °F 79% 30.14 in 1.2 mi East 18.4 mph - 0.00 in Snow Light Snow
11:15 AM 15.8 °F 0.3 °F 10.4 °F 79% 30.14 in 2.5 mi ENE 16.1 mph - 0.01 in Snow Light Snow
11:22 AM 15.8 °F -0.2 °F 10.4 °F 79% 30.15 in 3.0 mi ENE 17.3 mph - 0.01 in Snow Light Snow
11:46 AM 14.0 °F -2.5 °F 8.6 °F 79% 30.15 in 2.0 mi NE 17.3 mph - 0.01 in Snow Light Snow
11:53 AM 14.0 °F -3.0 °F 8.6 °F 79% 30.15 in 1.5 mi ENE 18.4 mph - 0.01 in Snow Light Snow
11:55 AM 14.0 °F -3.4 °F 8.1 °F 77% 30.26 in 1.2 mi ENE 19.6 mph - 0.01 in Snow Light Snow
12:32 PM 12.2 °F -5.3 °F 6.8 °F 79% 30.19 in 1.0 mi NNE 18.4 mph - 0.00 in Snow Light Snow
12:45 PM 12.2 °F -5.3 °F 6.8 °F 79% 30.19 in 1.5 mi NNE 18.4 mph 24.2 mph 0.00 in Snow Light Snow
12:55 PM 12.9 °F -4.9 °F 6.1 °F 74% 30.30 in 3.0 mi NNE 19.6 mph - 0.00 in Snow Light Snow
1:04 PM 12.2 °F -4.3 °F 6.8 °F 79% 30.21 in 4.0 mi North 16.1 mph - 0.00 in Snow Light Snow
1:21 PM 12.2 °F -5.8 °F 5.0 °F 73% 30.23 in 3.0 mi North 19.6 mph - 0.00 in Snow Light Snow
1:39 PM 12.2 °F -6.7 °F 5.0 °F 73% 30.24 in 2.0 mi North 21.9 mph - 0.00 in Snow Light Snow
1:55 PM 10.9 °F -8.3 °F 5.0 °F 77% 30.36 in 3.0 mi North 21.9 mph 28.8 mph 0.00 in Snow Light Snow
2:03 PM 10.4 °F -9.9 °F 3.2 °F 73% 30.26 in 3.0 mi North 24.2 mph 29.9 mph 0.00 in Snow Light Snow
2:55 PM 10.0 °F -10.4 °F 1.9 °F 70% 30.42 in 10.0 mi North 24.2 mph - 0.00 in   Scattered Clouds
3:55 PM 8.1 °F -9.6 °F -0.0 °F 70% 30.47 in 10.0 mi NNW 16.1 mph 23.0 mph N/A   Clear
4:55 PM 5.0 °F -11.6 °F -2.0 °F 73% 30.50 in 9.0 mi NNW 12.7 mph - N/A   Mostly Cloudy
5:55 PM 5.0 °F -11.6 °F -2.9 °F 70% 30.53 in 10.0 mi NW 12.7 mph - N/A   Overcast
6:55 PM 3.0 °F -11.5 °F -4.0 °F 73% 30.56 in 10.0 mi WNW 9.2 mph - N/A   Mostly Cloudy
7:19 PM 1.4 °F -14.5 °F -5.8 °F 72% 30.43 in 10.0 mi WNW 10.4 mph - N/A   Scattered Clouds
7:55 PM -2.0 °F -20.5 °F -8.0 °F 76% 30.57 in 10.0 mi WNW 12.7 mph - N/A   Clear
8:55 PM -6.0 °F -20.1 °F -11.0 °F 79% 30.57 in 10.0 mi West 6.9 mph - N/A   Clear
9:55 PM -8.0 °F - -13.0 °F 79% 30.57 in 10.0 mi Calm Calm - N/A   Clear
10:55 PM -8.0 °F -16.9 °F -11.9 °F 83% 30.55 in 10.0 mi WNW 3.5 mph - N/A   Clear
11:55 PM -8.0 °F -16.9 °F -13.0 °F 79% 30.55 in 10.0 mi West 3.5 mph - N/A   Clear